Regional Weather Roundup
Issued by NWS

Home | Current Version | Previous Version | Graphics & Text | Print | Product List | Glossary On
Versions: 1 2 3 4 5 6 7 8 9 10 11 12 13 14 15 16 17 18 19 20 21 22 23 24 25 26 27 28 29 30 31 32 33 34 35 36 37 38 39 40 41 42 43 44 45 46 47 48 49 50
000
ASUS43 KMKX 171021
RWRWI

WISCONSIN REGIONAL WEATHER ROUNDUP
NATIONAL WEATHER SERVICE MILWAUKEE/SULLIVAN WI
500 AM CDT WED SEP 17 2014

NOTE: "FAIR" INDICATES FEW OR NO CLOUDS BELOW 12,000 FEET WITH NO
SIGNIFICANT WEATHER AND/OR OBSTRUCTIONS TO VISIBILITY.

WIZ001-002-006>008-014>016-023>028-171100-
NORTHWEST WISCONSIN

CITY           SKY/WX    TMP DP  RH WIND       PRES   REMARKS
SUPERIOR ARPT  CLEAR     41  40  98 SW3       29.93F
ASHLAND        CLEAR     42  40  92 CALM      29.94F
HAYWARD        CLEAR     37  35  92 CALM      29.96F
SIREN          PTCLDY    47  44  90 CALM      29.95S
RICE LAKE      CLOUDY    40  40  98 CALM      29.98F FOG
LADYSMITH      CLEAR     39  38  96 E3        29.99F
EAU CLAIRE     MOCLDY    43  42  97 CALM      29.97F
MENOMONIE      CLOUDY    46  45  96 E3        29.98S
NEW RICHMOND   CLOUDY    51  46  84 S3        29.96S
OSCEOLA        CLOUDY    52  49  91 SE6       29.98F
$$

WIZ003>005-009-010-017-018-171100-
NORTH CENTRAL WISCONSIN

CITY           SKY/WX    TMP DP  RH WIND       PRES   REMARKS
WOODRUFF       PTCLDY    42  39  91 SW3       29.96F
RHINELANDER    CLEAR     44  41  89 SW7       29.98F
EAGLE RIVER    CLEAR     43  42  94 CALM      29.96S
LAND O LAKES   CLEAR     40  40  98 CALM      29.97S
PHILLIPS       CLEAR     40  39  96 CALM      29.97S
TOMAHAWK       CLEAR     33  32  96 CALM      29.99S
MEDFORD        CLEAR     40  39  95 CALM      29.98F
MERRILL        PTCLDY    34  34 100 CALM      29.99F FOG
$$

WIZ029-030-035-036-043>047-171100-
CENTRAL WISCONSIN

CITY           SKY/WX    TMP DP  RH WIND       PRES   REMARKS
WAUSAU         CLEAR     41  40  96 E5        29.99F
MOSINEE        CLEAR     39  39 100 S3        30.01S
MARSHFIELD     CLEAR     43  40  89 CALM      29.99F
STEVENS POINT  CLEAR     36  35  95 CALM      30.01S
WAUPACA        CLEAR     41  40  96 CALM      30.01F
WAUTOMA        CLEAR     37  36  96 CALM      30.02F
WISC RAPIDS    CLEAR     39  38  96 CALM      30.02F
CAMP DOUGLAS   CLEAR     37  37 100 E2        30.01F
$$

WIZ011>013-019>022-031-037>040-048>050-171100-
NORTHEAST WISCONSIN

CITY           SKY/WX    TMP DP  RH WIND       PRES   REMARKS
ANTIGO         CLEAR     37  37  98 CALM      30.00S
STURGEON BAY   CLEAR     50  45  81 SW7       29.99F
GREEN BAY      CLEAR     43  41  93 CALM      30.01S
MANITOWOC      CLEAR     47  44  90 W5        30.01F
APPLETON       NOT AVBL
CLINTONVILLE   CLEAR     39  37  93 CALM      30.01S
OSHKOSH        CLEAR     46  43  89 SW5       30.01F
$$

WIZ032>034-041-042-053>061-171100-
SOUTHWEST WISCONSIN

CITY           SKY/WX    TMP DP  RH WIND       PRES   REMARKS
LA CROSSE      CLOUDY    49  46  90 SE6       30.00F FOG
SPARTA         FOG       35  35 100 CALM      30.02F VSB 1/2
VIROQUA        FAIR      47  46  95 S5        30.02S
BOSCOBEL       FOG       46  45  96 CALM      30.04S VSB 1/4
PRAIRIE DU CHI DRZL/FOG  44  43  97 CALM      30.03S VSB 1/4
PLATTEVILLE    FAIR      45  42  90 CALM      30.04S
$$

WIZ056-057-062-063-064-067-068-171100-
SOUTH CENTRAL WISCONSIN

CITY           SKY/WX    TMP DP  RH WIND       PRES   REMARKS
BARABOO/DELLS  CLEAR     42  40  94 CALM      30.02S
LONE ROCK      HAZE      45  40  82 CALM      30.04S VSB 1/4
WATERTOWN      CLEAR     38  38 100 CALM      30.03S
MADISON        PTCLDY    40  39  97 CALM      30.03S
MIDDLETON      FAIR      40  40 100 CALM      30.04R
MONROE         CLEAR     46  43  87 SW8       30.03S
JANESVILLE     CLEAR     41  39  93 CALM      30.04S
$$

WIZ051-052-058>065-066-070>072-171100-
SOUTHEAST WISCONSIN

CITY           SKY/WX    TMP DP  RH WIND       PRES   REMARKS
MILWAUKEE      CLEAR     49  43  80 CALM      30.04S
WAUKESHA       CLEAR     39  39 100 CALM      30.04F
MILWAUKEE/TIMM CLEAR     43  39  87 CALM      30.04S
RACINE         CLEAR     50  46  86 SW6       30.05F
BURLINGTON       N/A     35  35 100 CALM      30.04S FOG
KENOSHA        FOG       42  41  96 CALM      30.04F VSB 1/4
FOND DU LAC    CLEAR     42  39  89 S5        30.03S
SHEBOYGAN      CLEAR     42  40  92 CALM      30.02F
WEST BEND      CLEAR     37  37 100 CALM      30.03S
JUNEAU         CLEAR     41  41  98 SE3       30.04S FOG
$$

LSZ147-162-171100-
LAKE SUPERIOR

STATION/POSITION TIME  TEMP    WIND        PRES    WAVE
                       AIR SEA DIR/SP/G            HT/PER
                 (UTC) (F)     (DEG/KT/KT) (MB)    (FT/S)
W MID LAKE BUOY  0950   46 47  250/  2/  2 1012.6F   2/ 4
DEVILS ISLAND    1000   49     350/  5/  6 1013.7R
PORT WING        0940   47     150/  4/  6 1013.5F
SAXON HARBOR     0900   52     190/  4/  7 1014.2S
$$

LMZ867-665-643>646-171100-
LAKE MICHIGAN

STATION/POSITION TIME  TEMP    WIND        PRES    WAVE
                       AIR SEA DIR/SP/G            HT/PER
                 (UTC) (F)     (DEG/KT/KT) (MB)    (FT/S)
N MID LAKE BUOY  0950   57 57  240/ 10/ 12 1014.6F   2/ 5
NORTHPORT PIER   0900   54     220/  2/  5 1014.9F
KEWAUNEE LAKESHO 0900   48     300/  6/  7 1015.2F
SHEBOYGAN LAKESH 1000   49 51  250/  9/ 10 1017.0F
PORT WASHINGTON  0900   49     270/  5/  6 1017.6F
ATWATER BUOY     1000   54     240/ 10/ 12 1017.9F
MILWAUKEE LAKESH 1000   53     240/  7/  8   N/A
S MID LAKE BUOY  0950   61 64  220/  8/ 10 1017.3F   1
KENOSHA   LAKESH 1000   51     240/  8/ 10 1016.9F
$$

TC  - TEMPERATURE IN CELSIUS
VSB - VISIBILITY IN STATUTE MILES
WCI - WIND CHILL INDEX
HX  - HEAT INDEX



USA.gov is the U.S. government's official web portal to all federal, state and local government web resources and services.